User: anonymous   Login
Location: Unspecified
(0.0000°N, 0.0000°E)
Time: 09:21:44
(UTC+02:00)
Language:

ASC 2 Rocket - Orbit

View from above orbital plane
View from above orbital plane
View from above satellite
View from above satellite

Ground track
Ground track

The orbit data is extracted from the following two-line orbital elements,

1 21228U 91028B   16126.24099699  .00000284  00000-0  66105-4 0  9995
2 21228  23.9904 132.0066 1143607  36.7891  58.5833 12.53257154146567
Epoch (UTC): 05 May 2016 05:47:02
Eccentricity: 0.1143607
inclination: 23.9904°
perigee height: 555 km
apogee height: 2346 km
right ascension of ascending node: 132.0066°
argument of perigee: 36.7891°
revolutions per day: 12.53257154
mean anomaly at epoch: 58.5833°
orbit number at epoch: 14656

The dashed part of the orbit path shows where the satellite is in the earth's shadow,  

DLR